{"data":{"norad_id":58878,"epoch":"2026-05-24T21:29:28.442112Z","epoch_age_seconds":77271,"freshness":"FRESH","line1":"1 58878U 24020C   26144.89546808 -.00000639  00000+0 -77966-5 0  9998","line2":"2 58878  53.1619 328.0924 0000981 170.8995 189.2026 15.34401237129749","mean_motion":15.34401237,"eccentricity":9.81e-5,"inclination_deg":53.1619,"raan_deg":328.0924,"arg_perigee_deg":170.8995,"mean_anomaly_deg":189.2026,"bstar":-7.7966e-6,"rev_number":12974,"period_min":93.847682423369,"perigee_km":462.028477518,"apogee_km":463.37064965178,"semimajor_km":6840.8365635849,"source":"CELESTRAK","updated_at":"2026-05-25T13:38:18.782795Z"}}